DateTimeUTC,F1_A11,F1_S11,BsB_S11,BsG_S11,BsR_S11,BbsB_S11,BbsG_S11,BbsR_S11,BaB_A11,BaG_A11,BaR_A11,Tu_S11,T_S11,Uu_S11,U_S11,P_S11,T1_A11
2021-08-03T15:00:00Z,00000200,20000000,,,,,,,0000.18,0000.10,0000.37,21.3,27.3,05.0,03.5,0672.1,31.4
2021-08-03T15:01:00Z,00000200,20000000,,,,,,,0000.06,-000.00,0000.04,21.3,27.3,05.2,03.6,0672.1,31.4
2021-08-03T15:02:00Z,00000200,20000000,,,,,,,0000.19,0000.70,0000.22,21.3,27.3,05.3,03.7,0672.1,31.4
2021-08-03T15:03:00Z,00000200,60000000,,,,,,,0000.62,0000.56,0000.48,21.3,27.3,05.3,03.7,0672.1,31.4
2021-08-03T15:04:00Z,00000200,40000000,0005.68,0003.65,0002.55,0001.40,0000.90,0000.73,0001.71,0001.37,0001.11,21.4,27.2,05.4,03.8,0673.1,31.4
2021-08-03T15:05:00Z,00000200,00000000,0005.28,0003.57,0002.21,0000.37,0000.70,0000.88,0000.90,0000.67,0000.70,21.5,27.2,05.5,03.9,0673.1,31.4
2021-08-03T15:06:00Z,00000200,00000000,0005.34,0003.53,0002.09,0000.63,0000.67,0000.37,0001.24,0000.98,0000.93,21.5,27.2,05.5,03.9,0673.1,31.4
2021-08-03T15:07:00Z,00000200,00000000,0005.69,0003.44,0002.52,0001.06,0000.65,0000.68,0001.66,0001.20,0000.88,21.5,27.2,05.5,03.9,0673.1,31.4
2021-08-03T15:08:00Z,00000200,00000000,0004.54,0003.23,0001.99,0000.50,0000.89,0000.74,0001.02,0001.16,0000.71,21.5,27.3,05.6,03.9,0673.2,31.4
2021-08-03T15:09:00Z,00000200,00000000,0005.07,0003.34,0002.66,0000.65,0000.60,0000.62,0001.12,0001.40,0001.07,21.5,27.2,05.7,04.0,0673.1,31.4
2021-08-03T15:10:00Z,00000200,00000000,0004.95,0003.41,0001.92,0001.07,0000.80,0000.62,0000.84,0000.94,0001.05,21.5,27.2,05.7,04.0,0673.2,31.4
2021-08-03T15:11:00Z,00000200,00000000,0004.90,0003.05,0002.43,0001.20,0000.55,0000.41,0001.10,0001.07,0000.40,21.5,27.2,05.6,04.0,0673.1,31.4
2021-08-03T15:12:00Z,00000200,00000000,0004.83,0003.40,0002.50,0000.84,0000.54,0000.82,0001.04,0001.12,0000.84,21.5,27.2,05.8,04.1,0673.2,31.4
2021-08-03T15:13:00Z,00000200,00000000,0004.02,0003.41,0001.99,0000.77,0000.63,0000.49,0001.37,0000.75,0000.66,21.6,27.3,05.7,04.0,0673.2,31.4
2021-08-03T15:14:00Z,00000200,00000000,0004.40,0003.29,0001.84,0001.35,0000.58,0000.44,0001.03,0000.82,0000.46,21.6,27.3,05.7,04.0,0673.1,31.5
2021-08-03T15:15:00Z,00000200,00000000,0004.27,0003.15,0001.94,0001.07,0000.39,0000.61,0000.91,0000.80,0000.99,21.6,27.3,05.7,04.1,0673.2,31.5
2021-08-03T15:16:00Z,00000200,00000000,0004.75,0003.23,0001.90,0000.50,0000.65,0000.61,0001.17,0000.99,0001.04,21.6,27.3,05.6,04.0,0673.2,31.5
2021-08-03T15:17:00Z,00000200,00000000,0004.49,0003.17,0001.73,0000.49,0000.58,0000.85,0000.81,0000.93,0000.40,21.6,27.3,05.7,04.0,0673.2,31.5
2021-08-03T15:18:00Z,00000200,00000000,0003.85,0003.02,0001.91,0000.77,0000.52,0000.54,0001.03,0001.03,0000.34,21.6,27.3,05.7,04.0,0673.1,31.5
2021-08-03T15:19:00Z,00000200,00000000,0004.52,0002.58,0002.02,0000.50,0000.57,0000.39,0001.01,0001.07,0001.25,21.6,27.3,05.6,04.0,0673.1,31.5
2021-08-03T15:20:00Z,00000200,00000000,0003.96,0002.78,0001.83,0000.88,0000.68,0000.64,0001.13,0000.82,0000.58,21.6,27.3,05.6,04.0,0673.1,31.5
2021-08-03T15:21:00Z,00000200,00000000,0004.17,0002.99,0001.96,0000.97,0000.35,0000.15,0001.00,0000.32,0000.51,21.6,27.3,05.7,04.0,0673.1,31.5
2021-08-03T15:22:00Z,00000200,00000000,0003.49,0002.39,0002.11,0000.62,0000.57,0000.37,0000.66,0001.27,0000.52,21.6,27.3,05.7,04.1,0673.1,31.5
2021-08-03T15:23:00Z,00000200,00000000,0003.66,0002.95,0001.65,0000.37,0000.35,0000.55,0000.65,0000.66,0000.93,21.6,27.3,05.7,04.0,0673.1,31.5
2021-08-03T15:24:00Z,00000200,00000000,0004.28,0002.64,0001.79,0001.08,0000.64,0000.26,0001.21,0000.92,0000.26,21.6,27.4,05.7,04.0,0673.1,31.5
2021-08-03T15:25:00Z,00000200,00000000,0004.77,0002.78,0002.02,0000.05,0000.52,0000.49,0001.00,0001.23,0000.96,21.6,27.3,05.7,04.0,0673.1,31.5
2021-08-03T15:26:00Z,00000200,00000000,0003.17,0002.58,0001.76,0000.93,0000.48,0000.51,0000.96,0000.74,0000.67,21.7,27.3,05.6,04.0,0673.1,31.5
2021-08-03T15:27:00Z,00000200,00000000,0003.55,0002.43,0002.19,0000.62,0000.46,0000.72,0000.55,0000.57,0000.55,21.7,27.4,05.8,04.1,0673.1,31.5
2021-08-03T15:28:00Z,00000200,00000000,0004.13,0002.19,0001.74,0000.68,0000.65,0000.68,0001.21,0001.10,0000.76,21.7,27.4,05.8,04.1,0673.1,31.5
2021-08-03T15:29:00Z,00000200,00000000,0003.55,0003.09,0001.72,0000.90,0000.46,0000.70,0000.94,0000.99,0000.69,21.7,27.4,05.8,04.1,0673.1,31.5
2021-08-03T15:30:00Z,00000200,00000000,0003.50,0002.67,0001.58,0000.17,0000.59,0000.49,0000.84,0000.46,0000.38,21.7,27.4,05.9,04.2,0673.1,31.5
2021-08-03T15:31:00Z,00000200,00000000,0003.44,0002.57,0001.65,0000.87,0000.21,0000.72,0000.90,0001.02,0001.06,21.7,27.4,05.9,04.2,0673.1,31.6
2021-08-03T15:32:00Z,00000200,00000000,0004.09,0002.56,0001.65,0001.16,0000.21,0000.77,0000.71,0000.96,0000.47,21.7,27.4,05.8,04.1,0673.1,31.6
2021-08-03T15:33:00Z,00000200,00000000,0003.48,0002.21,0001.84,0000.80,0000.50,0000.48,0001.31,0000.85,0000.74,21.7,27.4,05.9,04.2,0673.1,31.6
2021-08-03T15:34:00Z,00000200,00000000,0003.00,0002.82,0001.81,0000.65,0000.79,0000.21,0000.75,0000.55,0000.50,21.7,27.4,05.9,04.2,0673.1,31.6
2021-08-03T15:35:00Z,00000200,00000000,0003.27,0002.56,0001.73,0000.92,0000.61,0000.73,0001.05,0000.96,0000.55,21.7,27.4,05.9,04.2,0673.1,31.6
2021-08-03T15:36:00Z,00000200,00000000,0003.49,0001.99,0001.15,0000.89,0000.33,0000.28,0000.42,0000.77,0000.63,21.8,27.4,05.9,04.2,0673.1,31.6
2021-08-03T15:37:00Z,00000200,00000000,0003.34,0002.43,0001.01,0001.42,0000.58,0000.06,0000.98,0000.88,0000.85,21.7,27.4,05.9,04.2,0673.1,31.6
2021-08-03T15:38:00Z,00000200,00000000,0003.22,0002.70,0001.72,0000.74,0000.30,0000.27,0001.17,0000.56,0000.70,21.8,27.4,05.9,04.2,0673.1,31.6
2021-08-03T15:39:00Z,00000200,00000000,0003.56,0002.86,0001.95,0000.49,0000.30,0000.49,0000.49,0001.03,0000.61,21.8,27.4,06.0,04.3,0673.1,31.6
2021-08-03T15:40:00Z,00000200,00000000,0002.79,0002.24,0001.48,0000.06,0000.58,0000.18,0001.05,0000.74,0000.47,21.8,27.5,05.9,04.2,0673.1,31.6
2021-08-03T15:41:00Z,00000200,00000000,0003.31,0002.48,0001.77,0000.15,0000.28,0000.37,0001.03,0001.01,0000.71,21.8,27.5,05.9,04.2,0673.2,31.6
2021-08-03T15:42:00Z,00000200,00000000,0003.70,0002.66,0001.72,0000.86,0000.24,0000.73,0000.92,0000.82,0000.79,21.8,27.5,05.9,04.2,0673.2,31.6
2021-08-03T15:43:00Z,00000200,00000000,0003.22,0002.60,0001.73,0001.42,0000.30,0000.53,0000.50,0000.79,0000.47,21.8,27.5,06.0,04.3,0673.2,31.6
2021-08-03T15:44:00Z,00000200,00000000,0003.81,0002.48,0001.50,0000.61,0000.20,0000.35,0001.01,0000.38,0000.43,21.8,27.5,05.9,04.2,0673.2,31.6
2021-08-03T15:45:00Z,00000200,00000000,0003.23,0002.50,0001.49,0000.66,0000.69,0000.60,0000.99,0001.13,0000.37,21.8,27.5,06.0,04.3,0673.2,31.6
2021-08-03T15:46:00Z,00000200,00000000,0002.86,0002.54,0001.46,0000.98,0000.65,0000.44,0000.84,0000.54,0001.26,21.8,27.5,06.1,04.3,0673.2,31.7
2021-08-03T15:47:00Z,00000200,00000000,0003.93,0002.61,0001.67,0000.99,0000.49,0000.41,0000.92,0001.11,0000.37,21.8,27.5,06.0,04.3,0673.2,31.7
2021-08-03T15:48:00Z,00000200,00000000,0003.71,0002.26,0001.57,0001.08,0000.13,0000.22,0000.69,0000.50,0000.57,21.8,27.5,06.0,04.3,0673.2,31.7
2021-08-03T15:49:00Z,00000200,00000000,0003.60,0002.40,0001.71,0001.28,0000.65,0000.55,0000.84,0000.93,0000.77,21.8,27.5,06.1,04.4,0673.2,31.7
2021-08-03T15:50:00Z,00000200,00000000,0003.91,0002.54,0001.59,0000.65,0000.48,0000.34,0001.11,0000.56,0000.53,21.8,27.5,06.1,04.3,0673.2,31.7
2021-08-03T15:51:00Z,00000200,00000000,0003.83,0002.69,0001.54,0000.94,0000.60,0000.44,0000.92,0001.08,0000.39,21.8,27.5,06.1,04.4,0673.2,31.7
2021-08-03T15:52:00Z,00000200,00000000,0003.51,0002.33,0001.43,0000.79,0000.21,0000.62,0000.87,0000.75,0000.93,21.8,27.5,06.2,04.4,0673.2,31.7
2021-08-03T15:53:00Z,00000200,00000000,0004.03,0002.79,0001.51,0000.77,0000.36,0000.50,0000.95,0000.77,0000.92,21.8,27.5,06.2,04.4,0673.3,31.7
2021-08-03T15:54:00Z,00000200,00000000,0003.34,0002.48,0001.63,0001.19,0000.29,0000.58,0000.96,0000.81,0000.36,21.8,27.5,06.1,04.4,0673.3,31.7
2021-08-03T15:55:00Z,00000200,00000000,0003.73,0002.83,0001.54,0000.66,0000.50,0000.27,0000.53,0001.04,0000.50,21.8,27.5,06.1,04.3,0673.3,31.7
2021-08-03T15:56:00Z,00000200,00000000,0003.86,0002.58,0001.72,0000.70,0000.52,0000.65,0000.85,0000.34,0000.84,21.9,27.5,06.1,04.4,0673.3,31.7
2021-08-03T15:57:00Z,00000200,40000000,,,,,,,0000.32,0000.63,-000.01,21.9,27.6,05.8,04.1,0673.3,31.7
2021-08-03T15:58:00Z,00000200,60000000,,,,,,,0000.00,-000.23,0000.17,21.7,27.6,06.1,04.3,0672.3,31.7
2021-08-03T15:59:00Z,00000200,20000000,,,,,,,0000.03,0000.12,-000.11,21.7,27.7,06.2,04.3,0672.3,31.7
